Regional Weather Roundup
Issued by NWS Sioux Falls, SD

Home | Current Version | Previous Version | Text Only | Print | Product List | Glossary On
Versions: 1 2 3 4 5 6 7 8 9 10 11 12 13 14 15 16 17 18 19 20 21 22 23 24 25 26 27 28 29 30 31 32 33 34 35 36 37 38 39 40 41 42 43 44 45 46 47 48 49 50
907
ASUS43 KFSD 211210
RWRFSD

WEATHER ROUNDUP FOR SE SOUTH DAKOTA/SW MINNESOTA/NW IOWA
NATIONAL WEATHER SERVICE SIOUX FALLS SD
600 AM CST SAT JAN 21 2017

NOTE: "FAIR" INDICATES FEW OR NO CLOUDS BELOW 12,000 FEET WITH NO
SIGNIFICANT WEATHER AND OR OBSTRUCTIONS TO VISIBILITY.


SDZ038>040-050-052>070-211300-
SOUTHEAST SOUTH DAKOTA

CITY           SKY/WX    TMP DP  RH WIND       PRES   REMARKS
CHAMBERLAIN    CLOUDY    28  27  99 SW7       29.35S FOG     WCI  20
6HR MIN TEMP:  23; 6HR MAX TEMP:  28;

HURON          CLOUDY    25  24  96 NW7       29.34R WCI  17
6HR MIN TEMP:  25; 6HR MAX TEMP:  37;

MADISON        CLOUDY    32  32 100 S7          N/A  WCI  26
MITCHELL       CLOUDY    30  27  88 W12       29.36R WCI  20
6HR MIN TEMP:  30; 6HR MAX TEMP:  39; 6HR PCP: TRACE;

SIOUX FALLS    FOG       36  36 100 SE6       29.34S VSB 1/4
6HR MIN TEMP:  36; 6HR MAX TEMP:  37; 6HR PCP:  0.03;

WINNER         CLOUDY    30  27  88 W6        29.34F WCI  24
YANKTON        CLOUDY    36  34  93 SW5       29.34R
$$

MNZ071-072-080-081-089-090-097-098-211300-
SOUTHWEST MINNESOTA

CITY           SKY/WX    TMP DP  RH WIND       PRES   REMARKS
FAIRMONT       LGT RAIN  34  33  96 E3        29.38S VSB 3/4
JACKSON        FOG       32  32 100 E5        29.37S VSB 1/2 WCI  27
LUVERNE        FOG       34  32  93 CALM      29.36S VSB 1/2
MARSHALL       LGT RAIN  33  33 100 SE10      29.37F FOG     WCI  25
6HR MIN TEMP:  33; 6HR MAX TEMP:  34; 6HR PCP: TRACE;

MONTEVIDEO     FOG       34  34 100 S9        29.40S VSB 1   WCI  26
PIPESTONE      FOG       36  36 100 SE6       29.33F VSB 3/4
REDWOOD FALLS  FOG       34  33  96 E5        29.39S VSB 1/2 WCI  30
TRACY          LGT RAIN  34  34 100 E5        29.37S VSB 1/2 WCI  30
WINDOM         FOG       34  34 100 E5        29.37R VSB 1   WCI  30
WORTHINGTON    LGT RAIN  33  33 100 E5        29.36S VSB 1/2 WCI  29
$$

IAZ001>003-012>014-020>022-031-032-NEZ013-014-SDZ071-211300-
NORTHWEST IOWA

CITY           SKY/WX    TMP DP  RH WIND       PRES   REMARKS
CHEROKEE       FOG       35  35 100 CALM      29.36S VSB 1/2
DENISON        FOG       37  37 100 CALM      29.34S VSB 1/4
ESTHERVILLE    FOG       32  32 100 CALM      29.36F VSB 1/4
LE MARS        FOG       36  36 100 SW5       29.36S VSB 1/2
ORANGE CITY    FOG       36  36 100 CALM      29.35S VSB 1/2
SHELDON        FOG       34  34 100 E5        29.34S VSB 1/4 WCI  30
SIOUX CITY     FOG       38  36  92 CALM      29.36S VSB 1/2
6HR MIN TEMP:  37; 6HR MAX TEMP:  39; 6HR PCP: TRACE;

SPENCER        FOG       35  35 100 E3        29.36S VSB 1/4
6HR MIN TEMP:  34; 6HR MAX TEMP:  35; 6HR PCP: TRACE;

STORM LAKE     FOG       36  34  93 S3        29.35S VSB<1/4
$$

ABBREVIATIONS USED IN REMARKS
   TC - TEMPERATURE IN CELSIUS
  WCI - WIND CHILL INDEX
   HX - HEAT INDEX
  VSB - VISIBILITY





USA.gov is the U.S. government's official web portal to all federal, state and local government web resources and services.